Location: Newark
(34.1333°N, 7.9667°W)
Time: 18:30:50
(UTC+00:00)

CUBESAT XI-V - Pass Details

Date: 17 June 2023
Orbit: 661 x 686 km, 98.2° (Epoch: 28 September)

Event Time Altitude Azimuth Distance (km) Brightness Sun altitude
Exits shadow 01:46:19 29° 77° (ENE) 1,221 ? -29.9°
Maximum altitude 01:46:34 29° 71° (ENE) 1,217 ? -29.9°
Drops below altitude 10° 01:50:28 10° 12° (NNE) 2,085 ? -29.6°
Sets 01:53:03 0° 1° (N) 3,054 ? -29.4°
